Location: Hanover
(52.3667°N, 9.7167°E)
Time: 02:54:28
(UTC+02:00)

ARIANE 6 FM1 Upper Stage - Pass Details

Date: 20 September 2024
Orbit: 564 x 594 km, 62.0° (Epoch: 06 October)

Event Time Altitude Azimuth Distance (km) Brightness Sun altitude
Exits shadow 04:33:01 35° 314° (NW) 975 3.7 -22.5°
Maximum altitude 04:34:51 84° 40° (NE) 605 2.7 -22.3°
Drops below altitude 10° 04:39:14 10° 130° (SE) 1,932 5.6 -21.7°
Sets 04:41:29 0° 131° (SE) 2,831 6.5 -21.4°
